Location: Batang Balui
(2.7000°N, 113.7833°E)
Time: 00:59:00
(UTC+00:00)

FO-29 - Pass Details

Date: 08 April 2023
Orbit: 799 x 1322 km, 98.5° (Epoch: 29 May)

Event Time Altitude Azimuth Distance (km) Brightness Sun altitude
Rises 20:44:25 0° 18° (NNE) 3,799 12.9 -24.9°
Reaches altitude 10° 20:47:04 10° 21° (NNE) 2,771 12.2 -24.3°
Maximum altitude 20:53:09 65° 101° (ESE) 1,003 9.7 -22.8°
Drops below altitude 10° 20:58:35 10° 183° (S) 2,484 11.5 -21.4°
Sets 21:00:52 0° 186° (S) 3,379 12.2 -20.9°
